www.pogodaiklimat.ru

Погода и климат >> Архив погоды >> Канада >> Нунавут >> Алерт


ПОГОДА в Алерте

  • Прогноз погоды в Алерте
  • Монитор погоды в Алерте

АРХИВ ПОГОДЫ в Алерте

Время (UTC), дата Ветер
(напр.,м/с)
 
Видим.   Явления Облачность Т
(С)
Тd
(С)
f
(%)
Тe
(С)
Тes
(С)
Комфортность P
(гПа)
Po
(гПа)
Тmin
(С)
Tmax
(С)
R
(мм)
R24
(мм)
S
(см)
09 15.04 С 2 н/о н/о -29.6 -32.7 74 -36 -36 опасность
обморожения
1013.4 1004.5
12 15.04 З 2 н/о н/о -28.0 -31.5 72 -34 -34 опасность
обморожения
1012.6 1003.7 -31.0 -25.2 8
15 15.04 З 2 н/о н/о -27.2 -30.3 75 -34 -34 опасность
обморожения
1011.1 1002.2
18 15.04 З 2 н/о н/о -25.6 -29.6 69 -31 -31 опасность
обморожения
1009.9 1001.0 -31.0 -25.5
21 15.04 СЗ 3 н/о н/о -26.9 -30.2 73 -36 -36 опасность
обморожения
1008.5 999.6
00 16.04 З 3 н/о н/о -26.7 -30.0 74 -35 -35 опасность
обморожения
1008.0 999.1 -31.0 -25.2
03 16.04 З 3 н/о н/о -25.7 -28.5 77 -35 -35 опасность
обморожения
1008.3 999.4
06 16.04 С 2 н/о н/о -26.0 -28.6 79 -32 -32 опасность
обморожения
1008.0 999.2 -31.0 -24.9
09 16.04 З 2 н/о н/о -27.1 -30.0 76 -34 -34 опасность
обморожения
1007.8 998.9
12 16.04 СЗ 1 н/о н/о -26.7 -29.5 77 -31 -31 опасность
обморожения
1007.8 998.9 -27.6 -24.9 8
15 16.04 З 2 н/о н/о -26.3 -29.4 75 -32 -32 опасность
обморожения
1008.2 999.4
18 16.04 С 1 н/о {осадки} н/о -25.6 -29.0 73 -27 -27 1009.2 1000.3 -27.9 -23.1 0.4
21 16.04 СВ 3 н/о н/о -25.5 -28.4 77 -34 -34 опасность
обморожения
1010.9 1002.0
00 17.04 З 3 н/о н/о -25.9 -28.5 79 -35 -35 опасность
обморожения
1012.3 1003.4 -27.6 -23.1
03 17.04 З 4 н/о н/о -25.3 -27.7 80 -35 -35 опасность
обморожения
1013.8 1004.9
06 17.04 З 3 н/о н/о -24.6 -26.9 81 -32 -32 опасность
обморожения
1014.4 1005.5 -27.6 -23.1
09 17.04 С 2 н/о н/о -24.2 -26.7 80 -30 -30 1015.0 1006.1
12 17.04 С 3 н/о н/о -24.4 -26.8 80 -32 -32 опасность
обморожения
1015.3 1006.4 -27.0 -23.1 8
15 17.04 н/о н/о -23.9 -26.4 80 1014.8 1005.9
18 17.04 С 3 н/о н/о -24.3 -26.8 80 -32 -32 опасность
обморожения
1014.2 1005.3 -27.3 -23.7
21 17.04 н/о н/о -25.5 -28.2 78 1013.5 1004.6
00 18.04 С 1 н/о н/о -25.3 -28.1 77 -26 -26 1013.4 1004.5 -26.9 -23.7
03 18.04 СЗ 2 н/о н/о -26.4 -29.0 79 -32 -32 опасность
обморожения
1012.8 1003.9
06 18.04 З 2 н/о н/о -25.5 -28.1 79 -32 -32 опасность
обморожения
1012.7 1003.8 -27.3 -23.7
09 18.04 ЮЗ 1 н/о н/о -24.5 -27.0 80 -28 -28 1012.7 1003.8
12 18.04 В 2 н/о н/о -24.1 -26.6 80 -31 -31 опасность
обморожения
1012.3 1003.4 -27.3 -23.7 8
15 18.04 В 2 н/о н/о -23.3 -25.8 80 -29 -29 1011.5 1002.6
18 18.04 З 1 н/о {осадки} н/о -22.8 -25.3 80 -26 -26 1010.8 1002.0 -27.3 -21.8 0.2
21 18.04 В 2 н/о н/о -22.4 -24.8 81 -27 -27 1010.7 1001.9 4
00 19.04 С 2 н/о {осадки} н/о -22.3 -24.5 82 -29 -29 1010.9 1002.1 -25.5 -21.3 4
03 19.04 С 2 н/о н/о -22.3 -24.5 82 -29 -29 1011.0 1002.2
06 19.04 н/о н/о -23.4 -25.7 81 1011.0 1002.2 -25.7 -21.3
09 19.04 СЗ 1 н/о н/о -25.2 -28.0 77 -29 -29 1011.3 1002.5
12 19.04 ЮЗ 1 н/о н/о -24.1 -26.8 78 -28 -28 1011.5 1002.7 -27.0 -21.3 9
15 19.04 Ю 1 н/о н/о -22.7 -25.9 75 -24 -24 1011.5 1002.7
18 19.04 З 3 н/о н/о -22.1 -25.8 72 -30 -30 1010.9 1002.1 -27.0 -20.5
21 19.04 З 7 н/о н/о -20.5 -24.7 69 -32 -32 опасность
обморожения
1011.3 1002.5
00 20.04 В 1 н/о н/о -23.5 -26.4 77 -24 -24 1012.3 1003.4 -27.0 -20.0
03 20.04 ЮВ 2 н/о н/о -23.6 -26.0 81 -29 -29 1012.8 1003.9
06 20.04 штиль 0 н/о н/о -24.3 -29.2 64 -24 -24 1012.8 1003.9 -27.0 -20.0 20
09 20.04 СЗ 1 н/о н/о -27.2 -29.8 78 -31 -31 опасность
обморожения
1013.3 1004.4
12 20.04 СЗ 2 н/о н/о -26.0 -29.1 75 -32 -32 опасность
обморожения
1013.3 1004.4 -29.1 -20.0 8
15 20.04 З 1 н/о н/о -23.7 -26.7 76 -27 -27 1013.9 1005.0
18 20.04 СЗ 1 н/о н/о -24.0 -27.3 74 -28 -28 1014.2 1005.3 -29.1 -22.3
21 20.04 З 1 н/о н/о -24.1 -28.1 69 -28 -28 1014.8 1005.9
00 21.04 З 2 н/о н/о -26.1 -29.5 73 -32 -32 опасность
обморожения
1015.6 1006.7 -29.1 -22.7
03 21.04 З 3 н/о н/о -28.1 -31.3 74 -37 -37 опасность
обморожения
1016.5 1007.6
06 21.04 З 3 н/о н/о -28.3 -31.6 73 -38 -38 опасность
обморожения
1017.3 1008.4 -29.1 -22.3
09 21.04 З 2 н/о н/о -27.4 -30.8 73 -35 -35 опасность
обморожения
1018.4 1009.5
12 21.04 З 2 н/о н/о -26.7 -30.7 69 -34 -34 опасность
обморожения
1019.2 1010.2 -29.1 -22.3 8
15 21.04 З 3 н/о н/о -25.9 -29.9 69 -34 -34 опасность
обморожения
1019.4 1010.4
18 21.04 З 2 н/о н/о -24.5 -28.5 69 -30 -30 1019.4 1010.4 -29.1 -23.9
21 21.04 СЗ 1 н/о н/о -24.7 -28.7 69 -28 -28 1018.8 1009.9
00 22.04 З 2 н/о н/о -24.4 -27.6 75 -31 -31 опасность
обморожения
1018.4 1009.5 -29.1 -22.1
03 22.04 СЗ 3 н/о н/о -26.1 -28.7 79 -34 -34 опасность
обморожения
1017.7 1008.8
06 22.04 З 3 н/о н/о -26.1 -28.6 79 -34 -34 опасность
обморожения
1016.7 1007.8 -29.1 -22.1

 

Местоположение метеостанции Алерт (Нунавут, Канада): широта 82.50 долгота -62.31 высота над уровнем моря 65 м.

В архиве по умолчанию представлена погода в Алерте за последнюю неделю. Архивные данные за месяц целиком и за предыдущие месяцы, начиная с января 2011 года, Вы можете получить, выбрав интересующий диапазон дат из раскрывающегося списка и нажав кнопку "Ввод!".


*Определитесь, кто Вы:
робот инопланетянин человек

Внимание! Время в таблицах - всемирное. Для получения местного времени необходимо прибавить поправку, которая равна -4 ч.

Смотрите также архив погоды в соседних городах и на ближайших метеорологических станциях:

Погода в Kap Morris Jesup (Гренландия) (404 км)
Погода в Юрике (Нунавут, Канада) (482 км)
Погода в Юрике (Нунавут, Канада) (483 км)
Погода в Mittarfik Qaanaaq (Гренландия) (574 км)
Погода в Kitsissut (Гренландия) (685 км)
Погода в Station Nord aws (Гренландия) (690 км)
Погода в Сарнии (Онтарио, Канада) (747 км)
Погода в Henrik Kroeyer Holm (Гренландия) (792 км)
Погода в Исачсене (Нунавут, Канада) (826 км)
Погода в Kitsissorsuit (Гренландия) (947 км)

Пояснения к столбцам:

Ветер - указаны скорость ветра в м/с - средняя за 10 мин, порывы в срок и между сроками (в фигурных скобках) и направление, откуда дует ветер: С - северный, СВ - северо-восточный, В - восточный, ЮВ - юго-восточный, Ю - южный, ЮЗ - юго-западный, З - западный, СЗ - северо-западный.
Видимость - горизонтальная дальность видимости в метрах или километрах. При видимости от 1 до 10 км при отсутствии осадков обычно наблюдается дымка, при ухудшении видимости до 1 км и менее - туман. В сухую погоду видимость может ухудшаться дымом, пылью или мглою.
Явления - указаны атмосферные явления, наблюдавшиеся в срок или в последний час перед сроком; фигурными скобками обозначены явления, наблюдавшиеся между сроками (за 1-3 часа до срока); квадратными скобками обозначены град или гололедные отложения с указанием их диаметра в мм.
Облачность - указаны через наклонную черту общая и нижняя облачность в баллах и высота нижней границы облаков в метрах; квадратными скобками обозначены формы облаков: Ci - перистые, Cs - перисто-слоистые, Cc - перисто-кучевые, Ac - высококучевые, As - высокослоистые, Sc - слоисто-кучевые, Ns - слоисто-дождевые, Cu - кучевые, Cb - кучево-дождевые. Подробнее классификацию облаков см. в Атласе облаков (PDF).
T - Температура воздуха - температура, измеренная на высоте 2 м над землей.
Td - Температура точки росы - температура, при понижении до которой содержащийся в воздухе водяной пар достигнет насыщения.
f - Относительная влажность воздуха - влажноcть воздуха, измеренная на высоте 2 м над землей.
Te - Эффективная температура - температура, которую ощущает одетый по сезону человек в тени. Характеристика душности погоды. При расчете учитывается влияние влажности воздуха и скорости ветра на теплоощущения человека.
Tes - Эффективная температура на солнце - температура, которую ощущает человек, с поправкой на солнечный нагрев. Характеристика знойности погоды. Зависит от высоты солнца над горизонтом, облачности и скорости ветра. Ночью, в пасмурную погоду, а также при ветре 12 м/с и более поправка равна нулю.
P - Атмосферное давление - приведенное к уровню моря атмосферное давление.
Po - Атмосферное давление - измеренное на уровне метеостанции атмосферное давление.
Tmin - Минимальная температура - минимум температуры воздуха на высоте 2 м над землей.
Tmax - Максимальная температура - максимум температуры воздуха на высоте 2 м над землей.
R - Количество осадков - Количество выпавших осадков за период времени, мм. При наведении курсора мыши на число - период времени, за который выпало указанное количество осадков.
R24 - Количество осадков - Количество выпавших осадков за 24 часа, мм.
S - Снежный покров - Высота снежного покрова, см. При наведении курсора мыши на число - состояние снежного покрова и степень покрытия местности в баллах.